User: anonymous   Login
Location: Newark
(35.6799°N, 139.7636°E)
Time: 16:00:05
(UTC+00:00)
Language:

Transit 2A - Orbit

View from above orbital plane
View from above orbital plane
View from above satellite
View from above satellite

Ground track
Ground track

The orbit data is extracted from the following two-line orbital elements,

1    45U 60007A   19348.18496162 -.00000057  00000-0  12553-4 0  9997
2    45  66.6931 151.7667 0248111  91.2709 271.6826 14.33659779 96001
Epoch (UTC): 14 December 2019 04:26:20
Eccentricity: 0.0248111
inclination: 66.6931°
perigee height: 602 km
apogee height: 957 km
right ascension of ascending node: 151.7667°
argument of perigee: 91.2709°
revolutions per day: 14.33659779
mean anomaly at epoch: 271.6826°
orbit number at epoch: 9600

The dashed part of the orbit path shows where the satellite is in the earth's shadow,  

DLR